Location: El Frío
(10.0713°N, 67.9111°W)
Time: 18:47:10
(UTC+00:00)

Cosmos 2360 Rocket - Pass Details

Date: 11 December 2025
Orbit: 835 x 842 km, 71.0° (Epoch: 20 January)

Event Time Altitude Azimuth Distance (km) Brightness Sun altitude
Rises 23:36:47 0° 195° (SSW) 3,388 5.9 -20.3°
Reaches altitude 10° 23:39:13 10° 195° (SSW) 2,453 5.1 -20.8°
Maximum altitude 23:44:51 88° 105° (ESE) 844 2.1 -22.1°
Enters shadow 23:47:25 34° 17° (NNE) 1,346 2.9 -22.7°
